Torna al catalogo

STARLINK-37198

AttivoComunicazioniSSO
NORAD 68386·PAYLOAD·🇺🇸 United States

Lanciato Mar 26, 2026 da Vandenberg Space Force Base

Loading…

Prossimi Passaggi (prossime 24 ore)

TLE

AggiornatoSource: CelesTrak SupGP

Epoca: Sep 14, 2026, 15:52 UTC

1 68386C 26063G   26257.66159722  .00021285  00000+0  66095-3 0  2571
2 68386  97.2857  38.6894 0000822  98.7890 109.3526 15.33418556    10

Traccia STARLINK-37198 in tempo reale con AllMySat

Download on the App Store